This demonstration page uses our WeatherBlox Daily Observations layout. Learn more.

Left ArrowRight Arrow

Hourly Observations for May 9, 2015

Temp ( °F °C ) Dew Point ( °F °C ) Humidity (%) Winds ( mph kmh ) Pressure ( in mb ) Visibility ( mi km ) Precip ( " mm )
12:58 am 00:58 Cloudy 55 12.9 48 9.1 78 78 NNE 3 6 30.09 1019 10 16 0.00 0.00
1:58 am 01:58 Cloudy 55 12.9 48 9.1 78 78 NW 6 9 30.08 1019 10 16 0.00 0.00
2:40 am 02:40 Cloudy 55 13 48 9 77 77 N 5 7 30.06 1018 10 16 0.00 0.00
2:58 am 02:58 Cloudy 55 12.9 49 9.2 78 78 N 6 9 30.08 1019 10 16 0.00 0.00
3:58 am 03:58 Clear 54 12.1 48 8.7 80 80 N 9 15 30.07 1018 10 16 0.00 0.00
4:58 am 04:58 Clear 53 11.7 45 7 73 73 VRB 7 11 30.09 1019 10 16 0.00 0.00
5:58 am 05:58 Clear 51 10.6 43 6.3 75 75 NNE 7 11 30.08 1019 10 16 0.00 0.00
6:58 am 06:58 Mostly Sunny 50 9.8 42 5.8 76 76 NNE 7 11 30.09 1019 10 16 0.00 0.00
7:58 am 07:58 Sunny 51 10.3 43 6.1 75 75 NNE 6 9 30.09 1019 10 16 0.00 0.00
8:58 am 08:58 Mostly Sunny 53 11.8 46 7.7 76 76 ENE 9 15 30.07 1018 10 16 0.00 0.00
9:58 am 09:58 Cloudy 58 14.7 49 9.2 70 70 NE 9 15 30.06 1018 10 16 0.00 0.00
10:58 am 10:58 Sunny 62 16.7 51 10.6 67 67 NE 13 20 30.04 1017 10 16 0.00 0.00
11:58 am 11:58 Mostly Sunny 65 18.5 53 11.9 66 66 ENE 10 17 30.06 1018 10 16 0.00 0.00
12:58 pm 12:58 Partly Cloudy 67 19.6 55 12.8 65 65 E 9 15 30.03 1017 10 16 0.00 0.00
1:58 pm 13:58 Mostly Cloudy 68 20.2 56 13.1 64 64 E 9 15 30.01 1016 10 16 0.00 0.00
2:58 pm 14:58 Cloudy 68 20 56 13.1 65 65 ENE 10 17 29.98 1015 10 16 0.00 0.00
3:58 pm 15:58 Cloudy 68 20.2 56 13.5 66 66 E 9 15 29.95 1014 10 16 0.00 0.00
4:58 pm 16:58 Partly Cloudy 71 21.4 58 14.4 65 65 ENE 10 17 29.92 1013 10 16 0.00 0.00
5:58 pm 17:58 Mostly Cloudy 70 20.9 58 14.3 66 66 E 13 20 29.93 1013 10 16 0.00 0.00
6:58 pm 18:58 Mostly Sunny 69 20.8 58 14.6 68 68 E 10 17 29.89 1012 10 16 0.00 0.00
7:58 pm 19:58 Mostly Cloudy 69 20.4 58 14.7 70 70 ENE 9 15 29.89 1012 10 16 0.00 0.00
8:58 pm 20:58 Mostly Clear 68 19.9 59 14.9 73 73 E 12 19 29.86 1011 10 16 0.00 0.00
9:58 pm 21:58 Mostly Cloudy 67 19.6 59 15.2 76 76 E 13 20 29.88 1012 10 16 0.00 0.00
10:58 pm 22:58 Clear 66 18.9 59 15.2 79 79 E 9 15 29.87 1012 10 16 0.00 0.00
11:58 pm 23:58 Mostly Cloudy 65 18.2 59 15.2 83 83 E 8 13 29.87 1011 10 16 0.00 0.00

Powered by AerisWeather